Regional Weather Roundup
Issued by NWS

Home | Current Version | Previous Version | Graphics & Text | Print | Product List | Glossary On
Versions: 1 2 3 4 5 6 7 8 9 10 11 12 13 14 15 16 17 18 19 20 21 22 23 24 25 26 27 28 29 30 31 32 33 34 35 36 37 38 39 40 41 42 43 44 45 46 47 48 49 50
000
ASUS43 KMPX 291801
RWRMN
WEATHER ROUNDUP FOR MINNESOTA
NATIONAL WEATHER SERVICE TWIN CITIES/CHANHASSEN MN
100 PM CDT WED OCT 29 2014


NOTE: "FAIR" INDICATES FEW OR NO CLOUDS BELOW 12,000 FEET WITH NO
SIGNIFICANT WEATHER AND/OR OBSTRUCTIONS TO VISIBILITY. N/A MEANS
CURRENT SKY AND/OR WEATHER CONDITIONS ARE NOT AVAILABLE.

MNZ060>063-068>070-291900-
   Twin Cities Metro

CITY           SKY/WX    TMP DP  RH WIND       PRES   REMARKS
TWIN CITIES    CLOUDY    42  31  64 W7        30.15F
6HR MIN TEMP:  37; 6HR MAX TEMP:  43;

ST PAUL        CLOUDY    42  30  62 NW3       30.16F
CRYSTAL        CLOUDY    41  31  67 W9        30.14F
BLAINE         CLOUDY    43  34  70 SW5       30.14F
LAKEVILLE      CLOUDY    39  30  70 NW5       30.15F
EDEN PRAIRIE   CLOUDY    40  31  70 W5        30.15F
6HR MIN TEMP:  37; 6HR MAX TEMP:  41;

SOUTH ST PAUL  CLOUDY    43  31  62 W6        30.14F
LAKE ELMO      CLOUDY    43  32  65 W3        30.14F
$$
MNZ001>005-007-008-013>017-022>024-027-028-291900-
   Northwest Minnesota

CITY           SKY/WX    TMP DP  RH WIND       PRES   REMARKS
BEMIDJI        CLOUDY    34  32  90 W7        30.09F WCI  28
HALLOCK          N/A     37  30  75 SW3       30.09F
ROSEAU         CLOUDY    36  30  80 W6        30.08S
WARROAD        CLOUDY    36  32  87 W5        30.07F
THIEF RVR FALL CLOUDY    36  28  75 SW7       30.10F
CROOKSTON      CLOUDY    37  28  70 W7        30.12S
FOSSTON        CLOUDY    34  30  86 SW7       30.10F WCI  28
DETROIT LAKES  CLOUDY    36  30  80 SW3       30.12F
MOORHEAD       CLOUDY    39  30  70 S5        30.12F
PARK RAPIDS    CLOUDY    35  30  82 NW9       30.11F WCI  28
MAHNOMEN       CLOUDY    34  28  79 CALM      30.10F
$$
MNZ006-009>011-018-025>026-291900-
   North Central Minnesota

CITY           SKY/WX    TMP DP  RH WIND       PRES   REMARKS
BAUDETTE       CLOUDY    36  33  89 W5        30.07F
FLAG ISLAND    CLOUDY    36  32  87 W3        30.05F
INTL FALLS     CLOUDY    37  35  92 W8        30.06S
6HR MIN TEMP:  34; 6HR MAX TEMP:  38; 6HR PCP: TRACE;

WASKISH        CLOUDY    36  34  93 CALM      30.08F
BIG FORK       CLOUDY    37  34  87 W5        30.09S
LONGVILLE      CLOUDY    36  32  87 W7        30.11S
GRAND RAPIDS   CLOUDY    36  32  87 W8        30.09S
CRANE LAKE     CLOUDY    36  36 100 SW5       30.08S
ORR            CLOUDY    37  34  87 SW3       30.04F
COOK           CLOUDY    37  36  93 W7        30.07S
WALKER         CLOUDY    35  31  87 W5        30.11S WCI  30
$$
MNZ012-019>021-037-291900-
   Northeast Minnesota

CITY           SKY/WX    TMP DP  RH WIND       PRES   REMARKS
DULUTH         PTSUNNY   40  31  70 NW10      30.07S
6HR MIN TEMP:  36; 6HR MAX TEMP:  40; 6HR PCP: TRACE;

ELY            CLOUDY    39  34  81 W6        30.04S
HIBBING        CLOUDY    40  32  73 W7        30.07F
EVELETH        CLOUDY    39  34  81 W8        30.08S
DULUTH HARBOR  CLOUDY    43  34  70 SW5       30.10F
TWO HARBORS    CLOUDY    45 N/A N/A W6        30.05S
SILVER BAY     FAIR      45  34  65 W5        30.04S
GRAND MARAIS     N/A     44  32  62 CALM      30.04S
G MARAIS ARPRT PTSUNNY   39  28  65 NW7       30.01S
$$
MNZ029>031-032-039>041-046>048-054>057-064-291900-
   West Central Minnesota

CITY           SKY/WX    TMP DP  RH WIND       PRES   REMARKS
FERGUS FALLS   CLOUDY    36  27  69 CALM      30.15F
WHEATON        CLOUDY    37  28  70 S5        30.16F
MORRIS         FAIR      37  30  75 CALM      30.14F
ALEXANDRIA     CLOUDY    36  29  75 NW7       30.15F
ELBOW LAKE     CLOUDY    35  29  78 CALM      30.14F
WADENA         CLOUDY    36  28  75 NW8       30.12F
GLENWOOD       FAIR      36  30  80 W9        30.15S
APPLETON       CLOUDY    39  28  65 CALM      30.16F
BENSON         CLOUDY    37  30  75 N5        30.16F
ORTONVILLE     PTSUNNY   39  27  60 CALM      30.14F
MADISON        FAIR      43  32  65 CALM      30.15F
WILLMAR        CLOUDY    39  28  65 NW9       30.17F
$$
MNZ033>034-036-042>043-049>051-058-059-291900-
   Central Minnesota

CITY           SKY/WX    TMP DP  RH WIND       PRES   REMARKS
ST CLOUD       CLOUDY    40  31  70 W8        30.15S
6HR MIN TEMP:  37; 6HR MAX TEMP:  40;

SAUK CENTRE    CLOUDY    36  30  79 W7        30.15F
PAYNESVILLE    CLOUDY    35  30  81 SW7       30.16F WCI  30
AITKIN         CLOUDY    39  32  75 SW7       30.11S
PINE RIVER     CLOUDY    36  30  80 W3        30.15F
BRAINERD       CLOUDY    35  31  85 SW7       30.13F WCI  29
STAPLES        CLOUDY    36  30  80 W8        30.13S
LONG PRAIRIE   CLOUDY    36  30  80 W8        30.14F
LITTLE FALLS   CLOUDY    36  30  80 W8        30.14S
LITCHFIELD     CLOUDY    39  34  81 W8        30.16S
BUFFALO        CLOUDY    39  31  73 SW6       30.16F
MAPLE LAKE     CLOUDY    40  33  76 W8        30.16F
$$
MNZ037-044-045-052-053-291900-
   East Central Minnesota

CITY           SKY/WX    TMP DP  RH WIND       PRES   REMARKS
PRINCETON      CLOUDY    39  32  75 SW5       30.14F
MORA           CLOUDY    37  32  81 W5        30.14F
CAMBRIDGE      CLOUDY    41  30  65 W5        30.12F
RUSH CITY      CLOUDY    41  33  71 W7        30.13S
MOOSE LAKE     CLOUDY    39  32  75 W8        30.09S
HINCKLEY       CLOUDY    41  34  75 W9        30.12S
CLOQUET        CLOUDY    39  34  81 W8        30.08S
MCGREGOR       CLOUDY    37  34  87 W6        30.11S
$$
MNZ071>073-080-081-089-090-097-098-291900-
   Southwest Minnesota

CITY           SKY/WX    TMP DP  RH WIND       PRES   REMARKS
MONTEVIDEO     CLOUDY    39  32  75 N5        30.18S
GRANITE FALLS  CLOUDY    39  31  72 W9        30.18F
CANBY          PTSUNNY   42  32  68 E5        30.16F
MARSHALL       FAIR      43  28  56 N6        30.15F
REDWOOD FALLS  PTSUNNY   41  30  65 NW5       30.16F
OLIVIA         FAIR      39  32  75 NW7       30.15F
PIPESTONE      FAIR      45  30  57 W7        30.14F
WINDOM         FAIR      45  30  57 CALM      30.16F
WORTHINGTON    FAIR      45  28  53 NW5       30.16F
JACKSON        FAIR      45  30  57 CALM      30.16F
TRACY          FAIR      45  32  60 CALM      30.16F
SLAYTON        FAIR      43  29  58 CALM      30.15F
$$
MNZ065>067-074>077-082>085-091>093-291900-
   South Central Minnesota

CITY           SKY/WX    TMP DP  RH WIND       PRES   REMARKS
MANKATO        CLOUDY    39  27  60 W6        30.17F
NEW ULM        FAIR      39  30  70 NW5       30.17F
ST JAMES       FAIR      43  30  61 W7        30.17F
FAIRMONT       PTSUNNY   45  28  53 SW5       30.17F
GLENCOE        CLOUDY    41  33  74 W7        30.15F
FARIBAULT      CLOUDY    41  30  65 NW3       30.16F
OWATONNA       FAIR      39  30  70 W8        30.16F
WASECA         CLOUDY    37  28  70 NW5       30.17F
ALBERT LEA     CLOUDY    39  30  70 NW6       30.16F
$$
MNZ078>079-086>088-094>096-291900-
   Southeast Minnesota

CITY           SKY/WX    TMP DP  RH WIND       PRES   REMARKS
ROCHESTER      CLOUDY    40  31  70 VRB6      30.15F
6HR MIN TEMP:  36; 6HR MAX TEMP:  40;

RED WING       CLOUDY    45  30  57 W8        30.13F
STANTON        CLOUDY    42  32  66 W5        30.14F
DODGE CENTER   CLOUDY    39  32  75 W6        30.15F
WINONA         CLOUDY    43  32  65 NW6       30.14F
AUSTIN         CLOUDY    39  30  70 W6        30.15F
PRESTON        CLOUDY    39  31  73 NW9       30.15S
$$
ABBREVIATIONS USED IN REMARKS
   TC - TEMPERATURES IN CELSIUS
  WCI - WIND CHILL INDEX
   HX - HEAT INDEX
  VSB - VISIBILITY
$$



USA.gov is the U.S. government's official web portal to all federal, state and local government web resources and services.